Flag for Macedonia, Republic of Weather past 2 weeks in Skopje, Macedonia, Republic of

Now
25 °F

Clear.


Feels Like: 25 °F
Forecast: 23 / 50 °F
Wind: No wind

Location: Skopje-Petrovec

Current Time: Dec 22, 2014 at 7:01:10 AM

Latest Report: Dec 22, 2014 at 6:30 AM


Visibility: 10 mi

Pressure: 30.48 "Hg

Humidity: 86%

Dew point: 21 °F

Location of SkopjeLocation

Historic Weather in Skopje — Graph

°F

Skopje temperature yesterday

Maximum temperature yesterday: 50 °F (at 1:00 PM)
Minimum temperature yesterday: 30 °F (at 12:30 AM)
Average temperature yesterday: 39 °F

Past Weeks' High & Low Weather Summary

 TemperatureHumidityPressure
High55 °F (Dec 7, 12:30 PM)100% (Dec 10, 3:30 AM)30.48 "Hg (Dec 10, 3:30 AM)
Low25 °F (Dec 13, 6:00 AM)46% (Dec 21, 1:30 PM)29.80 "Hg (Dec 9, 3:30 AM)
Average38 °F88%30.14 "Hg
* Reported Dec 7 6:00 AM — Dec 22 6:00 AM, Skopje, Weather by CustomWeather, © 2014

Note: Actual official high and low records may vary slightly from our data, if they occured in-between our weather recording intervals... More about our weather records

Advertising

Skopje weather history for previous 24 hours

 ConditionsComfort  
Time TempWeatherWind HumidityBarometerVisibility
6:00 AM
Dec 22
27 °FClear.No wind86%30.48 "Hg10 mi
5:30 AM27 °FClear.No wind86%30.48 "Hg10 mi
4:30 AM28 °FPassing clouds.No wind74%30.48 "HgN/A
4:00 AM28 °FPassing clouds.No wind74%30.48 "HgN/A
3:30 AM30 °FPassing clouds.5 mph80%30.48 "HgN/A
3:00 AM30 °FPassing clouds.5 mph80%30.48 "HgN/A
2:00 AM36 °FPassing clouds.2 mph65%30.48 "HgN/A
1:00 AM36 °FPassing clouds.7 mph65%30.48 "HgN/A
12:30 AM37 °FPassing clouds.No wind60%30.48 "HgN/A
12:00 AM39 °FPassing clouds.No wind52%30.48 "HgN/A
11:30 PM
Dec 21
36 °FPassing clouds.No wind60%30.48 "HgN/A
10:30 PM36 °FPassing clouds.No wind65%30.48 "HgN/A
10:00 PM37 °FPassing clouds.6 mph56%30.45 "HgN/A
9:30 PM37 °FPassing clouds.6 mph56%30.45 "HgN/A
9:00 PM37 °FPassing clouds.6 mph56%30.45 "HgN/A
8:30 PM37 °FPassing clouds.9 mph56%30.45 "HgN/A
8:00 PM37 °FPassing clouds.9 mph60%30.45 "HgN/A
7:30 PM37 °FPassing clouds.3 mph56%30.42 "HgN/A
7:00 PM39 °FPassing clouds.9 mph52%30.42 "HgN/A
6:30 PM37 °FPassing clouds.8 mph60%30.42 "HgN/A
6:00 PM37 °FPassing clouds.6 mph65%30.39 "HgN/A
5:30 PM41 °FPassing clouds.10 mph57%30.36 "HgN/A
5:00 PM41 °FPassing clouds.10 mph57%30.36 "HgN/A
4:30 PM39 °FPassing clouds.6 mph70%30.33 "HgN/A
4:00 PM45 °FScattered clouds.9 mph53%30.30 "HgN/A
3:30 PM46 °FScattered clouds.12 mph53%30.30 "HgN/A
3:00 PM46 °FScattered clouds.12 mph46%30.30 "HgN/A
2:30 PM48 °FBroken clouds.3 mph46%30.30 "HgN/A
2:00 PM48 °FBroken clouds.3 mph46%30.30 "HgN/A
1:30 PM48 °FBroken clouds.5 mph46%30.30 "HgN/A
1:00 PM50 °FBroken clouds.5 mph47%30.30 "HgN/A
12:30 PM48 °FBroken clouds.8 mph50%30.30 "HgN/A
12:00 PM48 °FBroken clouds.7 mph58%30.30 "HgN/A
11:30 AM48 °FBroken clouds.6 mph58%30.30 "HgN/A
11:00 AM46 °FBroken clouds.3 mph62%30.30 "HgN/A
10:30 AM45 °FPartly sunny.5 mph71%30.30 "HgN/A
10:00 AM45 °FBroken clouds.6 mph71%30.27 "HgN/A
9:30 AM43 °FBroken clouds.3 mph76%30.27 "HgN/A
9:00 AM41 °FPartly sunny.2 mph81%30.27 "HgN/A
8:30 AM41 °FPartly sunny.5 mph81%30.27 "HgN/A
8:00 AM37 °FMostly cloudy.5 mph93%30.21 "HgN/A
7:30 AM34 °FLight rain. Cloudy.6 mph93%30.21 "Hg3 mi
7:00 AM32 °FFog.2 mph100%30.15 "Hg1 mi
Weather by CustomWeather, © 2014

See weather overviewHow to use our weather pages